GFSNGP_prec_snow_156.txt.gz
Snowfall_Accumulation
0.0 0.0 0.0 0.0 0.0 0.0 0.0 0.3 0.9 0.0 0.3 2.5 0.1 0.8 0.3 0.0 0.0 0.7 1.4 1.6 0.0 3.3 3.0 1.6 3.0 1.7 2.2 1.5 1.6 1.5 0.7 1.0 0.6 0.0 0.7 1.5 0.8 1.7 2.7 2.9 1.2 1.2 0.9 1.2
0.4 0.0 0.0 0.0 0.0 0.0 0.0 0.2 0.2 0.0 0.3 0.1 0.0 0.0 0.0 0.0 0.0 0.0 0.1 0.0 0.1 0.0 0.0 0.1 0.3 0.3 0.1 0.5 0.2 0.2 0.2 0.0 0.3 0.1 0.0 0.3 0.2 0.3 0.8 2.7 1.2 1.3 0.9 0.8
0.8 0.1 0.3 0.1 0.1 0.0 1.5 2.0 1.7 0.6 1.1 0.0 0.0 0.1 0.4 0.0 0.0 0.0 0.0 0.0 0.0 0.0 0.0 0.0 0.0 0.0 0.1 0.0 0.0 0.0 0.0 0.0 0.0 0.1 0.0 0.0 0.0 0.0 0.1 0.1 0.5 2.0 2.2 1.7
2.7 0.7 2.3 0.1 0.0 0.0 1.7 0.9 0.0 0.1 0.0 0.0 0.0 0.3 0.4 0.1 0.0 0.0 0.0 0.0 0.0 0.0 0.0 0.0 0.0 0.0 0.0 0.0 0.0 0.0 0.0 0.0 0.0 0.0 0.0 0.0 0.0 0.0 0.0 0.0 0.1 0.0 0.2 0.7
4.0 2.2 0.0 0.3 0.2 0.5 1.0 1.0 0.6 0.7 0.1 0.0 0.0 0.7 1.6 0.0 0.0 0.0 0.0 0.0 0.0 0.0 0.0 0.0 0.0 0.0 0.0 0.0 0.0 0.0 0.0 0.0 0.0 0.0 0.0 0.0 0.0 0.0 0.0 0.0 0.0 0.0 0.0 0.0
4.3 4.3 1.7 1.5 0.7 0.0 0.0 4.9 2.3 1.2 0.3 0.2 0.0 0.9 1.1 0.1 0.0 0.0 0.0 0.0 0.0 0.0 0.0 0.0 0.0 0.0 0.0 0.0 0.0 0.0 0.0 0.0 0.0 0.0 0.0 0.0 0.0 0.0 0.0 0.0 0.0 0.0 0.0 0.0
4.7 8.7 3.9 1.5 0.0 0.0 2.3 8.0 1.7 1.3 3.0 4.1 3.7 3.3 1.0 0.1 0.0 0.0 0.0 0.0 0.0 0.0 0.0 0.0 0.0 0.0 0.0 0.0 0.0 0.0 0.0 0.0 0.0 0.0 0.0 0.0 0.0 0.0 0.0 0.0 0.0 0.2 0.1 0.0
8.8 8.1 6.7 1.3 0.4 4.3 3.1 1.6 2.3 2.8 3.6 7.4 2.4 0.4 0.0 0.0 0.0 0.0 0.0 0.0 0.0 0.0 0.0 0.0 0.0 0.0 0.0 0.0 0.0 0.0 0.0 0.0 0.0 0.0 0.0 0.0 0.0 0.0 0.0 0.1 0.2 0.0 0.2 0.2
7.9 6.8 3.9 2.4 2.7 3.3 3.2 3.1 3.4 3.8 2.3 0.4 0.4 0.0 0.0 0.0 0.0 0.0 0.0 0.0 0.0 0.0 0.0 0.0 0.0 0.0 0.0 0.0 0.0 0.0 0.0 0.0 0.0 0.0 0.0 0.0 0.0 0.0 0.0 0.0 0.1 0.1 0.5 0.5
6.5 4.7 2.0 3.6 2.0 2.2 3.1 3.2 1.6 0.0 0.0 0.0 0.0 0.0 0.0 0.0 0.0 0.0 0.0 0.0 0.0 0.0 0.0 0.0 0.0 0.0 0.0 0.0 0.0 0.0 0.0 0.0 0.1 0.1 0.0 0.0 0.1 0.1 0.0 0.4 0.4 0.6 1.7 2.3
11.8 11.7 1.7 3.1 3.4 3.6 2.8 1.4 1.5 0.0 0.0 0.0 0.0 0.0 0.0 0.0 0.0 0.0 0.0 0.0 0.0 0.3 0.2 0.0 0.0 0.0 0.0 0.0 0.1 0.1 0.2 0.0 1.4 0.1 0.3 0.1 0.0 0.1 0.4 1.6 2.7 3.3 3.4 5.4
10.4 7.1 8.9 6.4 8.5 4.7 2.5 0.6 0.0 0.0 0.0 0.0 0.0 0.0 0.0 0.1 0.0 0.0 0.0 0.0 0.0 0.0 0.1 0.1 0.0 0.0 0.3 0.3 0.3 0.6 1.9 2.6 5.7 3.0 9.6 6.0 6.1 6.8 6.3 5.6 5.4 8.8 10.7 11.7
2.7 2.9 4.1 4.7 0.0 0.0 0.8 1.6 1.2 0.0 0.3 0.0 0.0 0.0 0.0 0.1 0.0 0.8 0.7 0.5 1.0 0.5 0.7 0.5 0.4 0.2 0.4 0.5 0.8 0.8 1.7 2.4 5.0 6.2 9.9 13.0 15.0 11.2 12.0 12.5 13.1 14.9 11.4 10.3
0.0 0.0 0.0 0.0 1.1 0.0 0.0 0.0 0.6 0.0 0.0 0.0 0.0 0.0 0.0 0.1 1.5 3.1 3.6 3.8 3.2 1.3 1.5 0.9 0.4 1.4 5.3 5.1 6.2 6.3 6.3 9.1 9.7 12.1 15.9 18.3 17.4 18.5 18.9 16.0 11.6 14.9 15.5 16.6
0.0 0.0 0.1 0.0 0.0 0.0 0.0 0.0 0.0 0.0 0.0 0.0 0.0 0.0 0.0 0.6 2.6 3.2 10.5 11.7 7.7 10.2 13.4 12.0 11.7 16.3 16.7 15.7 15.2 15.5 13.4 14.3 14.5 16.2 16.2 16.6 18.2 17.9 16.9 16.4 16.4 15.9 15.6 13.8
0.0 0.0 0.0 0.0 0.0 0.0 0.0 0.0 0.0 0.0 0.0 0.0 0.0 0.0 0.0 1.6 3.4 3.6 5.9 9.5 10.9 14.8 17.4 17.0 18.1 19.1 16.2 14.5 12.2 12.1 11.7 10.7 8.9 8.8 11.1 12.5 12.6 13.1 14.2 14.2 14.4 14.9 14.6 15.2
0.0 0.0 0.0 0.1 0.0 0.0 0.0 0.0 0.0 0.0 0.0 0.0 0.1 0.0 0.1 0.4 2.1 4.9 9.2 9.6 11.2 12.9 13.6 12.0 12.6 10.0 8.1 7.7 6.9 6.5 6.6 6.4 6.0 5.8 6.1 6.8 8.9 9.8 10.9 11.0 11.3 11.8 12.6 12.9
0.0 0.0 0.0 0.0 0.0 0.0 0.0 0.0 0.0 0.0 0.1 0.1 0.4 0.7 1.7 4.0 6.6 10.7 13.9 13.6 9.1 7.8 8.7 8.4 6.5 4.9 4.4 4.7 4.0 3.6 3.8 3.8 4.4 5.4 4.9 5.3 6.8 7.3 7.1 6.9 7.3 7.4 8.5 9.2
0.0 0.0 0.0 0.0 0.0 0.0 0.0 0.0 0.3 0.2 1.7 2.2 3.6 6.3 7.5 9.2 8.9 8.3 7.8 7.8 8.0 6.6 7.3 4.6 3.4 2.7 2.4 2.6 2.2 2.7 2.8 3.4 3.2 3.5 3.7 3.5 4.4 5.0 6.5 6.0 5.7 6.2 6.6 7.0
0.0 0.0 0.0 0.0 0.0 0.0 0.4 1.2 1.6 2.9 4.3 4.0 4.2 5.7 5.6 6.5 5.6 5.6 4.8 5.2 4.7 4.1 2.6 2.9 2.2 2.2 1.9 1.4 0.9 1.3 1.6 1.9 2.6 3.1 3.7 4.2 5.1 5.1 5.1 4.2 5.1 5.5 5.5 6.0
0.0 0.1 0.0 0.0 0.8 1.6 2.3 3.7 3.3 4.7 6.6 5.3 4.1 5.2 6.1 8.1 7.3 6.4 4.8 3.0 3.4 2.4 2.2 1.8 1.3 1.4 0.8 1.0 1.1 1.4 2.3 2.8 3.1 4.0 3.8 3.8 3.8 3.8 3.7 4.0 4.4 4.1 5.0 5.1
5.1 5.7 4.8 4.3 4.2 5.7 6.2 6.0 4.5 4.9 5.1 5.7 6.4 6.2 5.9 7.0 6.6 5.4 3.9 3.3 2.9 2.2 1.9 1.6 1.3 1.4 1.1 1.0 1.7 2.3 2.2 2.5 2.2 2.2 2.4 2.8 3.1 3.2 3.0 3.2 3.8 3.6 3.7 3.7
7.8 8.3 8.8 7.7 6.8 7.8 8.4 7.3 7.3 6.1 6.4 6.4 6.2 6.1 5.1 5.8 4.5 3.2 2.9 2.3 1.6 1.7 1.6 1.6 1.6 1.4 1.2 2.0 2.8 2.5 2.6 1.9 1.9 2.0 2.2 2.2 2.6 2.8 2.7 2.6 3.0 3.1 3.2 3.0
7.7 6.9 7.5 7.4 6.3 4.4 5.7 7.4 6.1 5.9 5.2 6.0 5.2 4.9 3.9 3.6 3.5 2.5 1.9 1.9 1.7 1.7 1.6 1.9 1.4 1.1 1.5 2.4 2.3 1.9 2.2 1.7 1.6 1.6 1.6 1.1 1.9 1.7 1.9 2.0 2.0 1.8 2.1 2.1
6.2 5.4 5.0 5.0 4.5 5.3 4.6 4.6 4.1 4.7 4.7 5.8 5.0 4.1 3.0 2.1 2.1 2.7 1.9 2.4 2.0 1.6 1.8 1.6 1.0 1.2 1.7 2.1 2.0 1.6 2.0 1.7 1.4 1.9 2.0 1.8 1.6 1.6 1.5 1.5 1.5 1.6 1.4 1.4
5.9 6.0 5.4 4.7 4.7 4.3 3.8 3.8 4.3 5.3 4.6 4.9 4.5 3.5 3.1 2.6 2.6 2.2 1.8 1.6 1.1 1.1 1.8 2.1 1.6 1.4 1.9 1.8 1.8 1.4 1.7 1.5 1.3 1.5 1.6 1.6 1.5 1.5 1.4 1.5 1.4 1.2 1.3 1.1
5.2 4.7 3.5 3.6 3.9 3.9 3.8 4.0 3.9 4.4 4.2 4.0 4.2 3.1 2.8 2.8 2.6 2.6 1.9 2.1 2.0 1.9 2.0 2.0 1.7 1.4 1.3 1.6 1.9 1.7 1.6 1.4 0.6 1.3 1.2 1.5 1.6 1.7 1.7 1.8 1.8 1.7 1.7 1.8

GFSNGP_prec_snow_159.txt.gz
Snowfall_Accumulation
0.0 0.0 0.0 0.0 0.0 0.0 0.0 0.3 0.9 0.0 0.3 2.5 0.1 0.8 0.3 0.0 0.0 0.7 1.4 1.6 0.0 3.3 3.0 1.6 3.0 1.7 2.2 1.5 1.6 1.5 0.7 1.0 0.6 0.0 0.7 1.5 0.8 1.7 2.7 2.9 1.2 1.2 1.8 2.0
0.4 0.0 0.0 0.0 0.0 0.0 0.0 0.2 0.2 0.0 0.3 0.1 0.0 0.0 0.0 0.0 0.0 0.0 0.1 0.0 0.1 0.0 0.0 0.1 0.3 0.3 0.1 0.5 0.2 0.2 0.2 0.0 0.3 0.1 0.0 0.3 0.2 0.3 0.8 2.7 1.2 1.3 0.9 0.8
0.8 0.1 0.3 0.1 0.1 0.0 1.5 2.0 1.7 0.6 1.1 0.0 0.0 0.1 0.4 0.0 0.0 0.0 0.0 0.0 0.0 0.0 0.0 0.0 0.0 0.0 0.1 0.0 0.0 0.0 0.0 0.0 0.0 0.1 0.0 0.0 0.0 0.0 0.1 0.1 0.5 2.0 2.2 1.7
2.7 0.7 2.3 0.1 0.0 0.0 1.7 0.9 0.0 0.1 0.0 0.0 0.0 0.3 0.4 0.1 0.0 0.0 0.0 0.0 0.0 0.0 0.0 0.0 0.0 0.0 0.0 0.0 0.0 0.0 0.0 0.0 0.0 0.0 0.0 0.0 0.0 0.0 0.0 0.0 0.1 0.0 0.2 0.7
4.0 2.2 0.0 0.3 0.2 0.5 1.0 1.0 0.6 0.7 0.1 0.0 0.0 0.7 1.6 0.0 0.0 0.0 0.0 0.0 0.0 0.0 0.0 0.0 0.0 0.0 0.0 0.0 0.0 0.0 0.0 0.0 0.0 0.0 0.0 0.0 0.0 0.0 0.0 0.0 0.0 0.0 0.0 0.0
4.3 4.3 1.7 1.5 0.7 0.0 0.0 4.9 2.3 1.2 0.3 0.2 0.0 0.9 1.1 0.1 0.0 0.0 0.0 0.0 0.0 0.0 0.0 0.0 0.0 0.0 0.0 0.0 0.0 0.0 0.0 0.0 0.0 0.0 0.0 0.0 0.0 0.0 0.0 0.0 0.0 0.0 0.0 0.0
4.7 8.7 3.9 1.5 0.0 0.0 2.3 8.0 1.7 1.3 3.0 4.1 3.7 3.3 1.0 0.1 0.0 0.0 0.0 0.0 0.0 0.0 0.0 0.0 0.0 0.0 0.0 0.0 0.0 0.0 0.0 0.0 0.0 0.0 0.0 0.0 0.0 0.0 0.0 0.0 0.0 0.2 0.2 0.0
8.8 8.1 6.7 1.3 0.4 4.3 3.1 1.6 2.3 2.8 3.6 7.4 2.4 0.4 0.0 0.0 0.0 0.0 0.0 0.0 0.0 0.0 0.0 0.0 0.0 0.0 0.0 0.0 0.0 0.0 0.0 0.0 0.0 0.0 0.0 0.0 0.0 0.0 0.0 0.1 0.2 0.0 0.2 0.2
7.9 6.8 3.9 2.4 2.7 3.3 3.2 3.1 3.4 3.8 2.3 0.4 0.4 0.0 0.0 0.0 0.0 0.0 0.0 0.0 0.0 0.0 0.0 0.0 0.0 0.0 0.0 0.0 0.0 0.0 0.0 0.0 0.0 0.0 0.0 0.0 0.0 0.0 0.0 0.0 0.1 0.2 0.5 0.5
6.5 4.7 2.0 3.6 2.0 2.2 3.1 3.2 1.6 0.0 0.0 0.0 0.0 0.0 0.0 0.0 0.0 0.0 0.0 0.0 0.0 0.0 0.0 0.0 0.0 0.0 0.0 0.0 0.0 0.0 0.0 0.0 0.1 0.1 0.0 0.0 0.1 0.1 0.0 0.4 0.5 0.7 1.7 2.3
11.8 11.7 1.7 3.1 3.4 3.6 2.8 1.4 1.5 0.0 0.0 0.0 0.0 0.0 0.0 0.0 0.0 0.0 0.0 0.0 0.0 0.3 0.2 0.0 0.0 0.0 0.0 0.0 0.1 0.1 0.2 0.0 1.4 0.1 0.3 0.1 0.0 0.1 0.4 1.6 2.8 3.5 3.6 5.4
10.4 7.1 8.9 6.4 8.5 4.7 2.5 0.6 0.0 0.0 0.0 0.0 0.0 0.0 0.0 0.1 0.0 0.0 0.0 0.0 0.0 0.0 0.1 0.1 0.0 0.0 0.3 0.3 0.3 0.6 1.9 2.6 5.7 3.0 9.6 6.0 6.1 6.8 6.3 5.6 5.4 8.8 10.7 11.7
2.7 2.9 4.1 4.7 0.0 0.0 0.8 1.6 1.2 0.0 0.3 0.0 0.0 0.0 0.0 0.1 0.0 0.8 0.7 0.5 1.0 0.5 0.7 0.5 0.4 0.2 0.4 0.5 0.8 0.8 1.7 2.4 5.0 6.2 9.9 13.0 15.0 11.2 12.1 12.5 13.1 14.9 11.4 10.3
0.0 0.0 0.0 0.0 1.1 0.0 0.0 0.0 0.6 0.0 0.0 0.0 0.0 0.0 0.0 0.1 1.5 3.1 3.6 3.8 3.2 1.3 1.5 0.9 0.4 1.4 5.3 5.1 6.2 6.3 6.3 9.1 9.7 12.1 16.0 18.3 17.4 18.5 19.0 16.0 11.6 14.9 15.5 16.6
0.0 0.0 0.1 0.0 0.0 0.0 0.0 0.0 0.0 0.0 0.0 0.0 0.0 0.0 0.0 0.6 2.6 3.2 10.5 11.7 7.7 10.2 13.4 12.0 11.7 16.3 16.7 15.7 15.2 15.5 13.4 14.3 14.5 16.2 16.2 16.6 18.2 18.0 17.0 16.5 16.4 15.9 15.6 13.8
0.0 0.0 0.0 0.0 0.0 0.0 0.0 0.0 0.0 0.0 0.0 0.0 0.0 0.0 0.0 1.6 3.4 3.6 5.9 9.5 10.9 14.8 17.4 17.0 18.1 19.1 16.2 14.5 12.2 12.1 11.7 10.7 8.9 8.8 11.1 12.5 12.6 13.2 14.3 14.2 14.4 14.9 14.6 15.2
0.0 0.0 0.0 0.1 0.0 0.0 0.0 0.0 0.0 0.0 0.0 0.0 0.1 0.0 0.1 0.4 2.1 4.9 9.2 9.6 11.2 12.9 13.6 12.0 12.6 10.0 8.1 7.7 6.9 6.5 6.6 6.4 6.0 5.8 6.1 6.8 8.9 9.9 10.9 11.1 11.3 11.8 12.6 12.9
0.0 0.0 0.0 0.0 0.0 0.0 0.0 0.0 0.0 0.0 0.1 0.1 0.4 0.7 1.7 4.0 6.6 10.7 13.9 13.6 9.1 7.8 8.7 8.4 6.5 4.9 4.4 4.7 4.0 3.6 3.8 3.8 4.4 5.4 4.9 5.3 6.8 7.3 7.1 7.0 7.3 7.4 8.5 9.2
0.0 0.0 0.0 0.0 0.0 0.0 0.0 0.0 0.3 0.2 1.7 2.2 3.6 6.3 7.5 9.2 8.9 8.3 7.8 7.8 8.0 6.6 7.3 4.6 3.4 2.7 2.4 2.6 2.2 2.7 2.8 3.4 3.2 3.5 3.7 3.5 4.4 5.0 6.5 6.0 5.8 6.2 6.6 7.0
0.0 0.0 0.0 0.0 0.0 0.0 0.4 1.2 1.6 2.9 4.3 4.0 4.2 5.7 5.6 6.5 5.6 5.6 4.8 5.2 4.7 4.1 2.6 2.9 2.2 2.2 1.9 1.4 0.9 1.3 1.6 1.9 2.6 3.1 3.7 4.2 5.1 5.1 5.1 4.2 5.2 5.5 5.5 6.0
0.0 0.1 0.0 0.0 0.8 1.6 2.3 3.7 3.3 4.7 6.6 5.3 4.1 5.2 6.1 8.1 7.3 6.4 4.8 3.0 3.4 2.4 2.2 1.8 1.3 1.4 0.8 1.0 1.1 1.4 2.3 2.8 3.1 4.0 3.8 3.8 3.8 3.8 3.7 4.0 4.4 4.1 5.0 5.1
5.1 5.7 4.8 4.3 4.2 5.7 6.2 6.0 4.5 4.9 5.1 5.7 6.4 6.2 5.9 7.0 6.6 5.4 3.9 3.3 2.9 2.2 1.9 1.6 1.3 1.4 1.1 1.0 1.7 2.3 2.2 2.5 2.2 2.2 2.4 2.8 3.1 3.2 3.0 3.2 3.8 3.6 3.7 3.7
7.8 8.3 8.8 7.7 6.8 7.8 8.4 7.3 7.3 6.1 6.4 6.4 6.2 6.1 5.1 5.8 4.5 3.2 2.9 2.3 1.6 1.7 1.6 1.6 1.6 1.4 1.2 2.0 2.8 2.5 2.6 1.9 1.9 2.0 2.2 2.2 2.6 2.8 2.7 2.6 3.0 3.1 3.2 3.0
7.7 6.9 7.5 7.4 6.3 4.4 5.7 7.4 6.1 5.9 5.2 6.0 5.2 4.9 3.9 3.6 3.5 2.5 1.9 1.9 1.7 1.7 1.6 1.9 1.4 1.1 1.5 2.4 2.3 1.9 2.2 1.7 1.6 1.6 1.6 1.1 1.9 1.7 1.9 2.0 2.0 1.8 2.1 2.1
6.2 5.4 5.0 5.0 4.5 5.3 4.6 4.6 4.1 4.7 4.7 5.8 5.0 4.1 3.0 2.1 2.1 2.7 1.9 2.4 2.0 1.6 1.8 1.6 1.0 1.2 1.7 2.1 2.0 1.6 2.0 1.7 1.4 1.9 2.0 1.8 1.6 1.6 1.5 1.5 1.5 1.6 1.4 1.4
5.9 6.0 5.4 4.7 4.7 4.3 3.8 3.8 4.3 5.3 4.6 4.9 4.5 3.5 3.1 2.6 2.6 2.2 1.8 1.6 1.1 1.1 1.8 2.1 1.6 1.4 1.9 1.8 1.8 1.4 1.7 1.5 1.3 1.5 1.6 1.6 1.5 1.5 1.4 1.5 1.4 1.2 1.3 1.1
5.2 4.7 3.5 3.6 3.9 3.9 3.8 4.0 3.9 4.4 4.2 4.0 4.2 3.1 2.8 2.8 2.6 2.6 1.9 2.1 2.0 1.9 2.0 2.0 1.7 1.4 1.3 1.6 1.9 1.7 1.6 1.4 0.7 1.3 1.2 1.5 1.6 1.7 1.7 1.8 1.8 1.7 1.7 1.8

GFSNGP_prec_snow_162.txt.gz
Snowfall_Accumulation
0.0 0.0 0.0 0.0 0.0 0.0 0.0 0.3 0.9 0.0 0.3 2.5 0.1 0.8 0.3 0.0 0.0 0.7 1.4 1.6 0.0 3.3 3.0 1.6 3.0 1.7 2.2 1.5 1.6 1.5 0.7 1.0 0.6 0.0 0.7 1.5 0.8 1.7 2.7 2.9 1.2 1.2 1.8 2.0
0.5 0.0 0.0 0.0 0.0 0.0 0.0 0.2 0.2 0.0 0.3 0.1 0.0 0.0 0.0 0.0 0.0 0.0 0.1 0.0 0.1 0.0 0.0 0.1 0.3 0.3 0.1 0.5 0.2 0.2 0.2 0.0 0.3 0.1 0.0 0.3 0.2 0.3 0.8 2.7 1.2 1.3 0.9 0.8
1.0 0.2 0.3 0.1 0.1 0.0 1.5 2.0 1.7 0.6 1.1 0.0 0.0 0.1 0.4 0.0 0.0 0.0 0.0 0.0 0.0 0.0 0.0 0.0 0.0 0.0 0.1 0.0 0.0 0.0 0.0 0.0 0.0 0.1 0.0 0.0 0.0 0.0 0.1 0.1 0.5 2.0 2.2 1.7
2.7 0.7 2.4 0.1 0.0 0.0 1.7 0.9 0.0 0.1 0.0 0.0 0.0 0.3 0.4 0.1 0.0 0.0 0.0 0.0 0.0 0.0 0.0 0.0 0.0 0.0 0.0 0.0 0.0 0.0 0.0 0.0 0.0 0.0 0.0 0.0 0.0 0.0 0.0 0.0 0.1 0.0 0.2 0.7
4.2 2.3 0.0 0.3 0.2 0.5 1.0 1.0 0.6 0.7 0.1 0.0 0.0 0.7 1.6 0.0 0.0 0.0 0.0 0.0 0.0 0.0 0.0 0.0 0.0 0.0 0.0 0.0 0.0 0.0 0.0 0.0 0.0 0.0 0.0 0.0 0.0 0.0 0.0 0.0 0.0 0.0 0.0 0.0
4.5 4.3 1.8 1.5 0.7 0.0 0.0 4.9 2.3 1.2 0.3 0.2 0.0 0.9 1.1 0.1 0.0 0.0 0.0 0.0 0.0 0.0 0.0 0.0 0.0 0.0 0.0 0.0 0.0 0.0 0.0 0.0 0.0 0.0 0.0 0.0 0.0 0.0 0.0 0.0 0.0 0.0 0.0 0.0
4.7 8.7 3.9 1.5 0.0 0.0 2.3 8.0 1.7 1.3 3.0 4.1 3.7 3.3 1.0 0.1 0.0 0.0 0.0 0.0 0.0 0.0 0.0 0.0 0.0 0.0 0.0 0.0 0.0 0.0 0.0 0.0 0.0 0.0 0.0 0.0 0.0 0.0 0.0 0.0 0.0 0.2 0.2 0.0
8.8 8.3 6.7 1.3 0.4 4.3 3.1 1.6 2.3 2.8 3.6 7.4 2.4 0.4 0.0 0.0 0.0 0.0 0.0 0.0 0.0 0.0 0.0 0.0 0.0 0.0 0.0 0.0 0.0 0.0 0.0 0.0 0.0 0.0 0.0 0.0 0.0 0.0 0.0 0.1 0.2 0.0 0.2 0.2
7.9 6.8 3.9 2.4 2.7 3.3 3.2 3.1 3.4 3.8 2.3 0.4 0.4 0.0 0.0 0.0 0.0 0.0 0.0 0.0 0.0 0.0 0.0 0.0 0.0 0.0 0.0 0.0 0.0 0.0 0.0 0.0 0.0 0.0 0.0 0.0 0.0 0.0 0.0 0.0 0.1 0.2 0.5 0.5
6.5 4.7 2.0 3.6 2.0 2.2 3.1 3.2 1.6 0.0 0.0 0.0 0.0 0.0 0.0 0.0 0.0 0.0 0.0 0.0 0.0 0.0 0.0 0.0 0.0 0.0 0.0 0.0 0.0 0.0 0.0 0.0 0.1 0.1 0.0 0.0 0.1 0.1 0.0 0.5 0.5 0.7 1.7 2.3
11.8 11.7 1.7 3.1 3.4 3.6 2.8 1.4 1.5 0.0 0.0 0.0 0.0 0.0 0.0 0.0 0.0 0.0 0.0 0.0 0.0 0.3 0.2 0.0 0.0 0.0 0.0 0.0 0.1 0.1 0.2 0.0 1.4 0.1 0.3 0.1 0.0 0.1 0.4 1.6 2.9 3.6 3.7 5.5
10.4 7.1 8.9 6.4 8.5 4.7 2.5 0.6 0.0 0.0 0.0 0.0 0.0 0.0 0.0 0.1 0.0 0.0 0.0 0.0 0.0 0.0 0.1 0.1 0.0 0.0 0.3 0.3 0.3 0.6 1.9 2.6 5.7 3.0 9.6 6.0 6.1 6.8 6.3 5.6 5.4 8.8 10.7 11.7
2.7 2.9 4.1 4.7 0.0 0.0 0.8 1.6 1.2 0.0 0.3 0.0 0.0 0.0 0.0 0.1 0.0 0.8 0.7 0.5 1.0 0.5 0.7 0.5 0.4 0.2 0.4 0.5 0.8 0.8 1.7 2.4 5.0 6.2 9.9 13.0 15.0 11.3 12.2 12.5 13.1 14.9 11.4 10.3
0.0 0.0 0.0 0.0 1.1 0.0 0.0 0.0 0.6 0.0 0.0 0.0 0.0 0.0 0.0 0.1 1.5 3.1 3.6 3.8 3.2 1.3 1.5 0.9 0.4 1.4 5.3 5.1 6.2 6.3 6.3 9.1 9.7 12.1 16.0 18.3 17.4 18.5 19.1 16.1 11.6 14.9 15.5 16.6
0.0 0.0 0.1 0.0 0.0 0.0 0.0 0.0 0.0 0.0 0.0 0.0 0.0 0.0 0.0 0.6 2.6 3.2 10.5 11.7 7.7 10.2 13.4 12.0 11.7 16.3 16.7 15.7 15.2 15.5 13.4 14.3 14.5 16.2 16.2 16.6 18.2 18.0 17.0 16.5 16.4 15.9 15.6 13.8
0.0 0.0 0.0 0.0 0.0 0.0 0.0 0.0 0.0 0.0 0.0 0.0 0.0 0.0 0.0 1.6 3.4 3.6 5.9 9.5 10.9 14.8 17.4 17.0 18.1 19.1 16.2 14.5 12.2 12.1 11.7 10.7 8.9 8.8 11.1 12.5 12.6 13.2 14.3 14.2 14.4 14.9 14.6 15.2
0.0 0.0 0.0 0.1 0.0 0.0 0.0 0.0 0.0 0.0 0.0 0.0 0.1 0.0 0.1 0.4 2.1 4.9 9.2 9.6 11.2 12.9 13.6 12.0 12.6 10.0 8.1 7.7 6.9 6.5 6.6 6.4 6.0 5.8 6.1 6.8 8.9 9.9 10.9 11.1 11.3 11.8 12.6 12.9
0.0 0.0 0.0 0.0 0.0 0.0 0.0 0.0 0.0 0.0 0.1 0.1 0.4 0.7 1.7 4.0 6.6 10.7 13.9 13.6 9.1 7.8 8.7 8.4 6.5 4.9 4.4 4.7 4.0 3.6 3.8 3.8 4.4 5.4 4.9 5.3 6.8 7.3 7.1 7.0 7.3 7.4 8.5 9.2
0.0 0.0 0.0 0.0 0.0 0.0 0.0 0.0 0.3 0.2 1.7 2.2 3.6 6.3 7.5 9.2 8.9 8.3 7.8 7.8 8.0 6.6 7.3 4.6 3.4 2.7 2.4 2.6 2.2 2.7 2.8 3.4 3.2 3.5 3.7 3.5 4.4 5.0 6.5 6.0 5.8 6.2 6.6 7.0
0.0 0.0 0.0 0.0 0.0 0.0 0.4 1.2 1.6 2.9 4.3 4.0 4.2 5.7 5.6 6.5 5.6 5.6 4.8 5.2 4.7 4.1 2.6 2.9 2.2 2.2 1.9 1.4 0.9 1.3 1.6 1.9 2.6 3.1 3.7 4.2 5.1 5.1 5.1 4.2 5.2 5.5 5.5 6.0
0.0 0.1 0.0 0.0 0.8 1.6 2.3 3.7 3.3 4.7 6.6 5.3 4.1 5.2 6.1 8.1 7.3 6.4 4.8 3.0 3.4 2.4 2.2 1.8 1.3 1.4 0.8 1.0 1.1 1.4 2.3 2.8 3.1 4.0 3.8 3.8 3.8 3.8 3.7 4.0 4.4 4.1 5.0 5.1
5.1 5.7 4.8 4.3 4.2 5.7 6.2 6.0 4.5 4.9 5.1 5.7 6.4 6.2 5.9 7.0 6.6 5.4 3.9 3.3 2.9 2.2 1.9 1.6 1.3 1.4 1.1 1.0 1.7 2.3 2.2 2.5 2.2 2.2 2.4 2.8 3.1 3.2 3.0 3.2 3.8 3.6 3.7 3.7
7.8 8.3 8.8 7.7 6.8 7.8 8.4 7.3 7.3 6.1 6.4 6.4 6.2 6.1 5.1 5.8 4.5 3.2 2.9 2.3 1.6 1.7 1.6 1.6 1.6 1.4 1.2 2.0 2.8 2.5 2.6 1.9 1.9 2.0 2.2 2.2 2.6 2.8 2.7 2.6 3.0 3.1 3.2 3.0
7.7 6.9 7.5 7.4 6.3 4.4 5.7 7.4 6.1 5.9 5.2 6.0 5.2 4.9 3.9 3.6 3.5 2.5 1.9 1.9 1.7 1.7 1.6 1.9 1.4 1.1 1.5 2.4 2.3 1.9 2.2 1.7 1.6 1.6 1.6 1.1 1.9 1.7 1.9 2.0 2.0 1.8 2.1 2.1
6.2 5.4 5.0 5.0 4.5 5.3 4.6 4.6 4.1 4.7 4.7 5.8 5.0 4.1 3.0 2.1 2.1 2.7 1.9 2.4 2.0 1.6 1.8 1.6 1.0 1.2 1.7 2.1 2.0 1.6 2.0 1.7 1.4 1.9 2.0 1.8 1.6 1.6 1.5 1.5 1.5 1.6 1.4 1.4
5.9 6.0 5.4 4.7 4.7 4.3 3.8 3.8 4.3 5.3 4.6 4.9 4.5 3.5 3.1 2.6 2.6 2.2 1.8 1.6 1.1 1.1 1.8 2.1 1.6 1.4 1.9 1.8 1.8 1.4 1.7 1.5 1.3 1.5 1.7 1.6 1.6 1.6 1.4 1.5 1.4 1.2 1.3 1.1
5.2 4.7 3.5 3.6 3.9 3.9 3.8 4.0 3.9 4.4 4.2 4.0 4.2 3.1 2.8 2.8 2.6 2.6 1.9 2.1 2.0 1.9 2.0 2.0 1.7 1.4 1.3 1.6 1.9 1.7 1.6 1.4 0.7 1.3 1.3 1.6 1.7 1.7 1.7 1.8 1.8 1.7 1.7 1.8

GFSNGP_prec_snow_165.txt.gz
Snowfall_Accumulation
0.0 0.0 0.0 0.0 0.0 0.0 0.0 0.3 0.9 0.0 0.3 2.5 0.1 0.8 0.3 0.0 0.0 0.7 1.4 1.6 0.0 3.3 3.0 1.6 3.0 1.7 2.2 1.5 1.6 1.5 0.7 1.0 0.6 0.0 0.7 1.5 0.8 1.7 2.7 2.9 1.2 1.2 1.8 2.0
0.5 0.1 0.0 0.0 0.0 0.0 0.0 0.2 0.2 0.0 0.3 0.1 0.0 0.0 0.0 0.0 0.0 0.0 0.1 0.0 0.1 0.0 0.0 0.1 0.3 0.3 0.1 0.5 0.2 0.2 0.2 0.0 0.3 0.1 0.0 0.3 0.2 0.3 0.8 2.7 1.2 1.3 0.9 0.8
1.2 0.2 0.3 0.1 0.1 0.0 1.5 2.0 1.7 0.6 1.1 0.0 0.0 0.1 0.4 0.0 0.0 0.0 0.0 0.0 0.0 0.0 0.0 0.0 0.0 0.0 0.1 0.0 0.0 0.0 0.0 0.0 0.0 0.1 0.0 0.0 0.0 0.0 0.1 0.1 0.5 2.0 2.2 1.7
3.4 1.0 3.4 0.5 0.0 0.0 1.7 0.9 0.0 0.1 0.0 0.0 0.0 0.3 0.4 0.1 0.0 0.0 0.0 0.0 0.0 0.0 0.0 0.0 0.0 0.0 0.0 0.0 0.0 0.0 0.0 0.0 0.0 0.0 0.0 0.0 0.0 0.0 0.0 0.0 0.1 0.0 0.2 0.7
4.2 2.3 0.0 0.3 0.2 0.5 1.0 1.0 0.6 0.7 0.1 0.0 0.0 0.7 1.6 0.0 0.0 0.0 0.0 0.0 0.0 0.0 0.0 0.0 0.0 0.0 0.0 0.0 0.0 0.0 0.0 0.0 0.0 0.0 0.0 0.0 0.0 0.0 0.0 0.0 0.0 0.0 0.0 0.0
5.3 4.7 1.8 1.5 0.7 0.0 0.0 4.9 2.3 1.2 0.3 0.2 0.0 0.9 1.1 0.1 0.0 0.0 0.0 0.0 0.0 0.0 0.0 0.0 0.0 0.0 0.0 0.0 0.0 0.0 0.0 0.0 0.0 0.0 0.0 0.0 0.0 0.0 0.0 0.0 0.0 0.0 0.1 0.0
5.5 8.7 3.9 1.5 0.0 0.0 2.3 8.0 1.7 1.3 3.0 4.1 3.7 3.3 1.0 0.1 0.0 0.0 0.0 0.0 0.0 0.0 0.0 0.0 0.0 0.0 0.0 0.0 0.0 0.0 0.0 0.0 0.0 0.0 0.0 0.0 0.0 0.0 0.0 0.0 0.0 0.2 0.2 0.0
9.4 9.1 6.9 1.3 0.4 4.3 3.1 1.6 2.3 2.8 3.6 7.4 2.4 0.4 0.0 0.0 0.0 0.0 0.0 0.0 0.0 0.0 0.0 0.0 0.0 0.0 0.0 0.0 0.0 0.0 0.0 0.0 0.0 0.0 0.0 0.0 0.0 0.0 0.0 0.1 0.2 0.0 0.2 0.2
7.9 6.8 3.9 2.4 2.7 3.3 3.2 3.1 3.4 3.8 2.3 0.4 0.4 0.0 0.0 0.0 0.0 0.0 0.0 0.0 0.0 0.0 0.0 0.0 0.0 0.0 0.0 0.0 0.0 0.0 0.0 0.0 0.0 0.0 0.0 0.0 0.0 0.0 0.0 0.0 0.1 0.3 0.5 0.5
6.5 4.7 2.0 3.6 2.0 2.2 3.1 3.2 1.6 0.0 0.0 0.0 0.0 0.0 0.0 0.0 0.0 0.0 0.0 0.0 0.0 0.0 0.0 0.0 0.0 0.0 0.0 0.0 0.0 0.0 0.0 0.0 0.1 0.1 0.0 0.0 0.1 0.1 0.1 0.6 0.6 0.8 1.7 2.4
11.8 11.7 1.7 3.1 3.4 3.6 2.8 1.4 1.5 0.0 0.0 0.0 0.0 0.0 0.0 0.0 0.0 0.0 0.0 0.0 0.0 0.3 0.2 0.0 0.0 0.0 0.0 0.0 0.1 0.1 0.2 0.0 1.4 0.1 0.3 0.1 0.0 0.1 0.5 1.7 3.0 3.7 3.8 5.6
10.4 7.1 8.9 6.4 8.5 4.7 2.5 0.6 0.0 0.0 0.0 0.0 0.0 0.0 0.0 0.1 0.0 0.0 0.0 0.0 0.0 0.0 0.1 0.1 0.0 0.0 0.3 0.3 0.3 0.6 1.9 2.6 5.7 3.0 9.6 6.0 6.1 6.8 6.3 5.6 5.4 8.8 10.7 11.8
2.7 2.9 4.1 4.7 0.0 0.0 0.8 1.6 1.2 0.0 0.3 0.0 0.0 0.0 0.0 0.1 0.0 0.8 0.7 0.5 1.0 0.5 0.7 0.5 0.4 0.2 0.4 0.5 0.8 0.8 1.7 2.4 5.0 6.2 9.9 13.0 15.0 11.3 12.2 12.5 13.1 14.9 11.4 10.3
0.0 0.0 0.0 0.0 1.1 0.0 0.0 0.0 0.6 0.0 0.0 0.0 0.0 0.0 0.0 0.1 1.5 3.1 3.6 3.8 3.2 1.3 1.5 0.9 0.4 1.4 5.3 5.1 6.2 6.3 6.3 9.1 9.7 12.1 16.0 18.3 17.4 18.6 19.2 16.2 11.7 14.9 15.5 16.6
0.0 0.0 0.1 0.0 0.0 0.0 0.0 0.0 0.0 0.0 0.0 0.0 0.0 0.0 0.0 0.6 2.6 3.2 10.5 11.7 7.7 10.2 13.4 12.0 11.7 16.3 16.7 15.7 15.2 15.5 13.4 14.3 14.5 16.2 16.2 16.6 18.2 18.0 17.0 16.6 16.4 15.9 15.6 13.8
0.0 0.0 0.0 0.0 0.0 0.0 0.0 0.0 0.0 0.0 0.0 0.0 0.0 0.0 0.0 1.6 3.4 3.6 5.9 9.5 10.9 14.8 17.4 17.0 18.1 19.1 16.2 14.5 12.2 12.1 11.7 10.7 8.9 8.8 11.1 12.5 12.6 13.2 14.3 14.2 14.4 14.9 14.6 15.2
0.0 0.0 0.0 0.1 0.0 0.0 0.0 0.0 0.0 0.0 0.0 0.0 0.1 0.0 0.1 0.4 2.1 4.9 9.2 9.6 11.2 12.9 13.6 12.0 12.6 10.0 8.1 7.7 6.9 6.5 6.6 6.4 6.0 5.8 6.1 6.8 8.9 9.9 10.9 11.1 11.3 11.8 12.6 12.9
0.0 0.0 0.0 0.0 0.0 0.0 0.0 0.0 0.0 0.0 0.1 0.1 0.4 0.7 1.7 4.0 6.6 10.7 13.9 13.6 9.1 7.8 8.7 8.4 6.5 4.9 4.4 4.7 4.0 3.6 3.8 3.8 4.4 5.4 4.9 5.3 6.8 7.3 7.1 7.0 7.3 7.4 8.5 9.2
0.0 0.0 0.0 0.0 0.0 0.0 0.0 0.0 0.3 0.2 1.7 2.2 3.6 6.3 7.5 9.2 8.9 8.3 7.8 7.8 8.0 6.6 7.3 4.6 3.4 2.7 2.4 2.6 2.2 2.7 2.8 3.4 3.2 3.5 3.7 3.5 4.4 5.0 6.5 6.0 5.8 6.2 6.6 7.0
0.0 0.0 0.0 0.0 0.0 0.0 0.4 1.2 1.6 2.9 4.3 4.0 4.2 5.7 5.6 6.5 5.6 5.6 4.8 5.2 4.7 4.1 2.6 2.9 2.2 2.2 1.9 1.4 0.9 1.3 1.6 1.9 2.6 3.1 3.7 4.2 5.1 5.1 5.1 4.2 5.2 5.5 5.5 6.0
0.0 0.1 0.0 0.0 0.8 1.6 2.3 3.7 3.3 4.7 6.6 5.3 4.1 5.2 6.1 8.1 7.3 6.4 4.8 3.0 3.4 2.4 2.2 1.8 1.3 1.4 0.8 1.0 1.1 1.4 2.3 2.8 3.1 4.0 3.8 3.8 3.8 3.8 3.7 4.0 4.4 4.1 5.0 5.2
5.1 5.7 4.8 4.3 4.2 5.7 6.2 6.0 4.5 4.9 5.1 5.7 6.4 6.2 5.9 7.0 6.6 5.4 3.9 3.3 2.9 2.2 1.9 1.6 1.3 1.4 1.1 1.0 1.7 2.3 2.2 2.5 2.2 2.2 2.4 2.8 3.1 3.2 3.0 3.2 3.8 3.6 3.8 3.8
7.8 8.3 8.8 7.7 6.8 7.8 8.4 7.3 7.3 6.1 6.4 6.4 6.2 6.1 5.1 5.8 4.5 3.2 2.9 2.3 1.6 1.7 1.6 1.6 1.6 1.4 1.2 2.0 2.8 2.5 2.6 1.9 1.9 2.0 2.2 2.2 2.6 2.8 2.7 2.6 3.0 3.1 3.2 3.0
7.7 6.9 7.5 7.4 6.3 4.4 5.7 7.4 6.1 5.9 5.2 6.0 5.2 4.9 3.9 3.6 3.5 2.5 1.9 1.9 1.7 1.7 1.6 1.9 1.4 1.1 1.5 2.4 2.3 1.9 2.2 1.7 1.6 1.6 1.6 1.1 1.9 1.7 1.9 2.0 2.0 1.8 2.1 2.1
6.2 5.4 5.0 5.0 4.5 5.3 4.6 4.6 4.1 4.7 4.7 5.8 5.0 4.1 3.0 2.1 2.1 2.7 1.9 2.4 2.0 1.6 1.8 1.6 1.0 1.2 1.7 2.1 2.0 1.6 2.0 1.7 1.4 1.9 2.0 1.8 1.7 1.6 1.6 1.5 1.5 1.6 1.4 1.4
5.9 6.0 5.4 4.7 4.7 4.3 3.8 3.8 4.3 5.3 4.6 4.9 4.5 3.5 3.1 2.6 2.6 2.2 1.8 1.6 1.1 1.1 1.8 2.1 1.6 1.4 1.9 1.8 1.8 1.4 1.7 1.5 1.3 1.5 1.7 1.7 1.6 1.6 1.4 1.5 1.4 1.2 1.3 1.1
5.2 4.7 3.5 3.6 3.9 3.9 3.8 4.0 3.9 4.4 4.2 4.0 4.2 3.1 2.8 2.8 2.6 2.6 1.9 2.1 2.0 1.9 2.0 2.0 1.7 1.4 1.3 1.6 1.9 1.7 1.6 1.4 0.7 1.3 1.3 1.6 1.7 1.8 1.7 1.8 1.8 1.7 1.7 1.8

GFSNGP_prec_snow_171.txt.gz
Snowfall_Accumulation
0.0 0.0 0.0 0.0 0.0 0.0 0.1 0.4 0.9 0.0 0.3 2.5 0.1 0.8 0.3 0.0 0.0 0.7 1.4 1.6 0.0 3.3 3.0 1.6 3.0 1.7 2.2 1.5 1.6 1.5 0.7 1.0 0.6 0.0 0.7 1.5 0.8 1.7 2.7 2.9 1.2 1.2 1.8 2.0
1.5 0.1 0.0 0.1 0.0 0.0 0.0 0.2 0.2 0.0 0.3 0.1 0.0 0.0 0.0 0.0 0.0 0.0 0.1 0.0 0.1 0.0 0.0 0.1 0.3 0.3 0.1 0.5 0.2 0.2 0.2 0.0 0.3 0.1 0.0 0.3 0.2 0.3 0.8 2.7 1.2 1.3 0.9 0.8
3.0 0.2 0.3 1.7 0.6 0.0 1.5 2.0 1.7 0.6 1.1 0.0 0.0 0.1 0.4 0.0 0.0 0.0 0.0 0.0 0.0 0.0 0.0 0.0 0.0 0.0 0.1 0.0 0.0 0.0 0.0 0.0 0.0 0.1 0.0 0.0 0.0 0.0 0.1 0.1 0.5 2.0 2.2 1.7
4.5 1.3 5.6 0.5 0.0 0.0 1.7 0.9 0.0 0.1 0.0 0.0 0.0 0.3 0.4 0.1 0.0 0.0 0.0 0.0 0.0 0.0 0.0 0.0 0.0 0.0 0.0 0.0 0.0 0.0 0.0 0.0 0.0 0.0 0.0 0.0 0.0 0.0 0.0 0.0 0.1 0.0 0.2 0.7
6.1 3.6 0.4 0.3 0.2 0.5 1.0 1.0 0.6 0.7 0.1 0.0 0.0 0.7 1.6 0.0 0.0 0.0 0.0 0.0 0.0 0.0 0.0 0.0 0.0 0.0 0.0 0.0 0.0 0.0 0.0 0.0 0.0 0.0 0.0 0.0 0.0 0.0 0.0 0.0 0.0 0.0 0.0 0.0
6.7 6.1 2.5 1.5 0.7 0.0 0.0 4.9 2.3 1.2 0.3 0.2 0.0 0.9 1.1 0.1 0.0 0.0 0.0 0.0 0.0 0.0 0.0 0.0 0.0 0.0 0.0 0.0 0.0 0.0 0.0 0.0 0.0 0.0 0.0 0.0 0.0 0.0 0.0 0.0 0.0 0.0 0.1 0.0
6.2 9.3 4.0 1.5 0.0 0.0 2.3 8.0 1.7 1.3 3.0 4.1 3.7 3.3 1.0 0.1 0.0 0.0 0.0 0.0 0.0 0.0 0.0 0.0 0.0 0.0 0.0 0.0 0.0 0.0 0.0 0.0 0.0 0.0 0.0 0.0 0.0 0.0 0.0 0.0 0.0 0.2 0.2 0.0
10.4 10.3 7.4 1.3 0.4 4.3 3.1 1.6 2.3 2.8 3.6 7.4 2.4 0.4 0.0 0.0 0.0 0.0 0.0 0.0 0.0 0.0 0.0 0.0 0.0 0.0 0.0 0.0 0.0 0.0 0.0 0.0 0.0 0.0 0.0 0.0 0.0 0.0 0.0 0.1 0.2 0.0 0.2 0.2
8.2 6.8 3.9 2.4 2.7 3.3 3.2 3.1 3.4 3.8 2.3 0.4 0.4 0.0 0.0 0.0 0.0 0.0 0.0 0.0 0.0 0.0 0.0 0.0 0.0 0.0 0.0 0.0 0.0 0.0 0.0 0.0 0.0 0.0 0.0 0.0 0.0 0.0 0.0 0.1 0.2 0.3 0.6 0.6
6.7 4.7 2.0 3.6 2.0 2.2 3.1 3.2 1.6 0.0 0.0 0.0 0.0 0.0 0.0 0.0 0.0 0.0 0.0 0.0 0.0 0.0 0.0 0.0 0.0 0.0 0.0 0.0 0.0 0.0 0.0 0.0 0.1 0.1 0.0 0.0 0.1 0.1 0.1 0.7 0.7 0.9 1.8 2.5
11.8 11.7 1.7 3.1 3.4 3.6 2.8 1.4 1.5 0.0 0.0 0.0 0.0 0.0 0.0 0.0 0.0 0.0 0.0 0.0 0.0 0.3 0.2 0.0 0.0 0.0 0.0 0.0 0.1 0.1 0.2 0.0 1.4 0.1 0.3 0.1 0.1 0.2 0.5 1.9 3.1 3.9 3.9 5.7
10.6 7.1 8.9 6.4 8.5 4.7 2.5 0.6 0.0 0.0 0.0 0.0 0.0 0.0 0.0 0.1 0.0 0.0 0.0 0.0 0.0 0.0 0.1 0.1 0.0 0.0 0.3 0.3 0.3 0.6 1.9 2.6 5.7 3.0 9.6 6.0 6.1 6.8 6.3 5.6 5.4 8.8 10.7 11.8
2.7 2.9 4.1 4.7 0.0 0.0 0.8 1.6 1.2 0.0 0.3 0.0 0.0 0.0 0.0 0.1 0.0 0.8 0.7 0.5 1.0 0.5 0.7 0.5 0.4 0.2 0.4 0.5 0.8 0.8 1.7 2.4 5.0 6.2 9.9 13.0 15.0 11.4 12.3 12.5 13.1 14.9 11.4 10.3
0.0 0.0 0.0 0.0 1.1 0.0 0.0 0.0 0.6 0.0 0.0 0.0 0.0 0.0 0.0 0.1 1.5 3.1 3.6 3.8 3.2 1.3 1.5 0.9 0.4 1.4 5.3 5.1 6.2 6.3 6.3 9.1 9.7 12.1 16.0 18.3 17.5 18.7 19.3 16.2 11.8 15.0 15.5 16.6
0.0 0.0 0.1 0.0 0.0 0.0 0.0 0.0 0.0 0.0 0.0 0.0 0.0 0.0 0.0 0.6 2.6 3.2 10.5 11.7 7.7 10.2 13.4 12.0 11.7 16.3 16.7 15.7 15.2 15.5 13.4 14.3 14.5 16.2 16.2 16.6 18.3 18.0 17.1 16.6 16.5 15.9 15.7 13.8
0.0 0.0 0.0 0.0 0.0 0.0 0.0 0.0 0.0 0.0 0.0 0.0 0.0 0.0 0.0 1.6 3.4 3.6 5.9 9.5 10.9 14.8 17.4 17.0 18.1 19.1 16.2 14.5 12.2 12.1 11.7 10.7 8.9 8.8 11.1 12.5 12.6 13.2 14.3 14.3 14.5 15.0 14.7 15.3
0.0 0.0 0.0 0.1 0.0 0.0 0.0 0.0 0.0 0.0 0.0 0.0 0.1 0.0 0.1 0.4 2.1 4.9 9.2 9.6 11.2 12.9 13.6 12.0 12.6 10.0 8.1 7.7 6.9 6.5 6.6 6.4 6.0 5.8 6.1 6.8 8.9 9.9 11.0 11.2 11.4 11.8 12.6 13.0
0.0 0.0 0.0 0.0 0.0 0.0 0.0 0.0 0.0 0.0 0.1 0.1 0.4 0.7 1.7 4.0 6.6 10.7 13.9 13.6 9.1 7.8 8.7 8.4 6.5 4.9 4.4 4.7 4.0 3.6 3.8 3.8 4.4 5.4 4.9 5.3 6.8 7.3 7.1 7.0 7.4 7.5 8.5 9.2
0.0 0.0 0.0 0.0 0.0 0.0 0.0 0.0 0.3 0.2 1.7 2.2 3.6 6.3 7.5 9.2 8.9 8.3 7.8 7.8 8.0 6.6 7.3 4.6 3.4 2.7 2.4 2.6 2.2 2.7 2.8 3.4 3.2 3.5 3.7 3.5 4.4 5.1 6.6 6.1 5.8 6.3 6.7 7.1
0.0 0.0 0.0 0.0 0.0 0.0 0.4 1.2 1.6 2.9 4.3 4.0 4.2 5.7 5.6 6.5 5.6 5.6 4.8 5.2 4.7 4.1 2.6 2.9 2.2 2.2 1.9 1.4 0.9 1.3 1.6 1.9 2.6 3.1 3.7 4.2 5.1 5.2 5.2 4.2 5.2 5.6 5.6 6.1
0.0 0.1 0.0 0.0 0.8 1.6 2.3 3.7 3.3 4.7 6.6 5.3 4.1 5.2 6.1 8.1 7.3 6.4 4.8 3.0 3.4 2.4 2.2 1.8 1.3 1.4 0.8 1.0 1.1 1.4 2.3 2.8 3.1 4.1 3.8 3.9 3.9 3.9 3.7 4.1 4.5 4.2 5.1 5.3
5.1 5.7 4.8 4.3 4.2 5.7 6.2 6.0 4.5 4.9 5.1 5.7 6.4 6.2 5.9 7.0 6.6 5.4 3.9 3.3 2.9 2.2 1.9 1.6 1.3 1.4 1.1 1.0 1.7 2.3 2.2 2.5 2.2 2.2 2.4 2.8 3.1 3.3 3.1 3.3 3.9 3.7 3.9 3.9
7.8 8.3 8.8 7.7 6.8 7.8 8.4 7.3 7.3 6.1 6.4 6.4 6.2 6.1 5.1 5.8 4.5 3.2 2.9 2.3 1.6 1.7 1.6 1.6 1.6 1.4 1.2 2.0 2.8 2.6 2.7 2.0 2.0 2.1 2.3 2.3 2.7 3.0 2.8 2.7 3.0 3.2 3.3 3.0
7.7 6.9 7.5 7.4 6.3 4.4 5.7 7.4 6.1 5.9 5.2 6.0 5.2 4.9 3.9 3.6 3.5 2.5 1.9 1.9 1.7 1.7 1.6 2.0 1.4 1.1 1.5 2.4 2.4 2.0 2.3 1.8 1.7 1.8 1.7 1.1 2.1 1.8 2.1 2.1 2.1 1.9 2.2 2.2
6.2 5.4 5.0 5.0 4.5 5.3 4.6 4.6 4.1 4.7 4.7 5.8 5.0 4.1 3.0 2.1 2.1 2.7 1.9 2.4 2.0 1.6 1.8 1.7 1.0 1.2 1.7 2.1 2.2 1.8 2.1 1.8 1.5 2.0 2.1 1.9 1.8 1.7 1.7 1.6 1.6 1.7 1.5 1.5
5.9 6.0 5.4 4.7 4.7 4.3 3.8 3.8 4.3 5.3 4.6 4.9 4.5 3.5 3.1 2.6 2.6 2.2 1.8 1.6 1.1 1.1 1.8 2.2 1.6 1.4 2.0 1.9 1.9 1.6 1.8 1.7 1.4 1.6 1.8 1.7 1.7 1.6 1.5 1.6 1.5 1.3 1.4 1.2
5.2 4.7 3.5 3.6 3.9 3.9 3.8 4.0 3.9 4.4 4.2 4.0 4.2 3.1 2.8 2.8 2.6 2.6 2.0 2.2 2.0 2.0 2.1 2.1 1.8 1.4 1.3 1.7 2.1 1.9 1.7 1.5 0.7 1.3 1.3 1.6 1.7 1.8 1.8 1.9 1.8 1.7 1.7 1.8

GFSNGP_prec_snow_174.txt.gz
Snowfall_Accumulation
0.0 0.0 0.0 0.0 0.0 0.0 0.1 0.4 0.9 0.0 0.3 2.5 0.1 0.8 0.3 0.0 0.0 0.7 1.4 1.6 0.0 3.3 3.0 1.6 3.0 1.7 2.2 1.5 1.6 1.5 0.7 1.0 0.6 0.0 0.7 1.5 0.8 1.7 2.7 2.9 1.2 1.2 1.8 2.0
1.5 0.1 0.0 0.1 0.0 0.0 0.0 0.2 0.2 0.0 0.3 0.1 0.0 0.0 0.0 0.0 0.0 0.0 0.1 0.0 0.1 0.0 0.0 0.1 0.3 0.3 0.1 0.5 0.2 0.2 0.2 0.0 0.3 0.1 0.0 0.3 0.2 0.3 0.8 2.7 1.2 1.3 0.9 0.8
3.4 0.2 0.3 1.7 0.6 0.0 1.5 2.0 1.7 0.6 1.1 0.0 0.0 0.1 0.4 0.0 0.0 0.0 0.0 0.0 0.0 0.0 0.0 0.0 0.0 0.0 0.1 0.0 0.0 0.0 0.0 0.0 0.0 0.1 0.0 0.0 0.0 0.0 0.1 0.1 0.5 2.0 2.2 1.7
5.6 1.3 6.6 0.5 0.0 0.0 1.7 0.9 0.0 0.1 0.0 0.0 0.0 0.3 0.4 0.1 0.0 0.0 0.0 0.0 0.0 0.0 0.0 0.0 0.0 0.0 0.0 0.0 0.0 0.0 0.0 0.0 0.0 0.0 0.0 0.0 0.0 0.0 0.0 0.0 0.1 0.0 0.2 0.7
7.1 4.3 0.6 0.3 0.2 0.5 1.0 1.0 0.6 0.7 0.1 0.0 0.0 0.7 1.6 0.0 0.0 0.0 0.0 0.0 0.0 0.0 0.0 0.0 0.0 0.0 0.0 0.0 0.0 0.0 0.0 0.0 0.0 0.0 0.0 0.0 0.0 0.0 0.0 0.0 0.0 0.0 0.0 0.0
7.0 6.3 2.6 1.5 0.7 0.0 0.0 4.9 2.3 1.2 0.3 0.2 0.0 0.9 1.1 0.1 0.0 0.0 0.0 0.0 0.0 0.0 0.0 0.0 0.0 0.0 0.0 0.0 0.0 0.0 0.0 0.0 0.0 0.0 0.0 0.0 0.0 0.0 0.0 0.0 0.0 0.0 0.1 0.0
6.9 9.6 4.0 1.5 0.0 0.0 2.3 8.1 1.7 1.3 3.0 4.1 3.7 3.3 1.0 0.1 0.0 0.0 0.0 0.0 0.0 0.0 0.0 0.0 0.0 0.0 0.0 0.0 0.0 0.0 0.0 0.0 0.0 0.0 0.0 0.0 0.0 0.0 0.0 0.0 0.0 0.2 0.2 0.0
11.1 10.9 7.6 1.3 0.4 4.3 3.1 1.6 2.3 2.8 3.6 7.4 2.4 0.4 0.0 0.0 0.0 0.0 0.0 0.0 0.0 0.0 0.0 0.0 0.0 0.0 0.0 0.0 0.0 0.0 0.0 0.0 0.0 0.0 0.0 0.0 0.0 0.0 0.0 0.1 0.2 0.0 0.2 0.2
8.3 6.9 3.9 2.4 2.7 3.3 3.2 3.1 3.4 3.8 2.3 0.4 0.4 0.0 0.0 0.0 0.0 0.0 0.0 0.0 0.0 0.0 0.0 0.0 0.0 0.0 0.0 0.0 0.0 0.0 0.0 0.0 0.0 0.0 0.0 0.0 0.0 0.0 0.0 0.1 0.2 0.3 0.6 0.6
7.4 4.7 2.0 3.6 2.0 2.2 3.1 3.2 1.6 0.0 0.0 0.0 0.0 0.0 0.0 0.0 0.0 0.0 0.0 0.0 0.0 0.0 0.0 0.0 0.0 0.0 0.0 0.0 0.0 0.0 0.0 0.0 0.1 0.1 0.0 0.0 0.1 0.1 0.1 0.7 0.7 0.9 1.8 2.5
11.8 11.7 1.7 3.1 3.4 3.6 2.8 1.4 1.5 0.0 0.0 0.0 0.0 0.0 0.0 0.0 0.0 0.0 0.0 0.0 0.0 0.3 0.2 0.0 0.0 0.0 0.0 0.0 0.1 0.1 0.2 0.0 1.4 0.1 0.3 0.1 0.1 0.2 0.5 1.9 3.1 3.9 3.9 5.7
10.6 7.1 8.9 6.4 8.5 4.7 2.5 0.6 0.0 0.0 0.0 0.0 0.0 0.0 0.0 0.1 0.0 0.0 0.0 0.0 0.0 0.0 0.1 0.1 0.0 0.0 0.3 0.3 0.3 0.6 1.9 2.6 5.7 3.0 9.6 6.0 6.1 6.8 6.3 5.6 5.4 8.8 10.7 11.8
2.7 2.9 4.1 4.7 0.0 0.0 0.8 1.6 1.2 0.0 0.3 0.0 0.0 0.0 0.0 0.1 0.0 0.8 0.7 0.5 1.0 0.5 0.7 0.5 0.4 0.2 0.4 0.5 0.8 0.8 1.7 2.4 5.0 6.2 9.9 13.0 15.0 11.4 12.3 12.5 13.1 14.9 11.4 10.3
0.0 0.0 0.0 0.0 1.1 0.0 0.0 0.0 0.6 0.0 0.0 0.0 0.0 0.0 0.0 0.1 1.5 3.1 3.6 3.8 3.2 1.3 1.5 0.9 0.4 1.4 5.3 5.1 6.2 6.3 6.3 9.1 9.7 12.1 16.0 18.3 17.5 18.7 19.3 16.2 11.8 15.0 15.5 16.6
0.0 0.0 0.1 0.0 0.0 0.0 0.0 0.0 0.0 0.0 0.0 0.0 0.0 0.0 0.0 0.6 2.6 3.2 10.5 11.7 7.7 10.2 13.4 12.0 11.7 16.3 16.7 15.7 15.2 15.5 13.4 14.3 14.5 16.2 16.2 16.6 18.3 18.0 17.1 16.6 16.5 15.9 15.7 13.8
0.0 0.0 0.0 0.0 0.0 0.0 0.0 0.0 0.0 0.0 0.0 0.0 0.0 0.0 0.0 1.6 3.4 3.6 5.9 9.5 10.9 14.8 17.4 17.0 18.1 19.1 16.2 14.5 12.2 12.1 11.7 10.7 8.9 8.8 11.1 12.5 12.6 13.2 14.3 14.3 14.5 15.0 14.7 15.3
0.0 0.0 0.0 0.1 0.0 0.0 0.0 0.0 0.0 0.0 0.0 0.0 0.1 0.0 0.1 0.4 2.1 4.9 9.2 9.6 11.2 12.9 13.6 12.0 12.6 10.0 8.1 7.7 6.9 6.5 6.6 6.4 6.0 5.8 6.1 6.8 8.9 9.9 11.0 11.2 11.4 11.8 12.6 13.0
0.0 0.0 0.0 0.0 0.0 0.0 0.0 0.0 0.0 0.0 0.1 0.1 0.4 0.7 1.7 4.0 6.6 10.7 13.9 13.6 9.1 7.8 8.7 8.4 6.5 4.9 4.4 4.7 4.0 3.6 3.8 3.8 4.4 5.4 4.9 5.3 6.8 7.3 7.1 7.0 7.4 7.5 8.5 9.2
0.0 0.0 0.0 0.0 0.0 0.0 0.0 0.0 0.3 0.2 1.7 2.2 3.6 6.3 7.5 9.2 8.9 8.3 7.8 7.8 8.0 6.6 7.3 4.6 3.4 2.7 2.4 2.6 2.2 2.7 2.8 3.4 3.2 3.5 3.7 3.5 4.4 5.1 6.6 6.1 5.8 6.3 6.7 7.1
0.0 0.0 0.0 0.0 0.0 0.0 0.4 1.2 1.6 2.9 4.3 4.0 4.2 5.7 5.6 6.5 5.6 5.6 4.8 5.2 4.7 4.1 2.6 2.9 2.2 2.2 1.9 1.4 0.9 1.3 1.6 1.9 2.6 3.1 3.7 4.2 5.1 5.2 5.2 4.2 5.2 5.6 5.6 6.1
0.0 0.1 0.0 0.0 0.8 1.6 2.3 3.7 3.3 4.7 6.6 5.3 4.1 5.2 6.1 8.1 7.3 6.4 4.8 3.0 3.4 2.4 2.2 1.8 1.3 1.4 0.8 1.0 1.1 1.4 2.3 2.8 3.1 4.1 3.8 3.9 3.9 3.9 3.8 4.1 4.6 4.2 5.1 5.3
5.1 5.7 4.8 4.3 4.2 5.7 6.2 6.0 4.5 4.9 5.1 5.7 6.4 6.2 5.9 7.0 6.6 5.4 3.9 3.3 2.9 2.2 1.9 1.6 1.3 1.4 1.1 1.0 1.7 2.3 2.2 2.5 2.2 2.2 2.4 2.8 3.2 3.3 3.1 3.3 3.9 3.7 3.9 3.9
7.8 8.3 8.8 7.7 6.8 7.8 8.4 7.3 7.3 6.1 6.4 6.4 6.2 6.1 5.1 5.8 4.5 3.2 2.9 2.3 1.6 1.7 1.6 1.6 1.6 1.4 1.2 2.0 2.8 2.6 2.7 2.0 2.0 2.1 2.3 2.3 2.7 3.0 2.8 2.8 3.1 3.2 3.4 3.1
7.7 6.9 7.5 7.4 6.3 4.4 5.7 7.4 6.1 5.9 5.2 6.0 5.2 4.9 3.9 3.6 3.5 2.5 1.9 1.9 1.7 1.7 1.6 2.0 1.4 1.1 1.5 2.4 2.4 2.0 2.4 1.9 1.7 1.9 1.8 1.1 2.1 1.8 2.1 2.1 2.1 1.9 2.2 2.2
6.2 5.4 5.0 5.0 4.5 5.3 4.6 4.6 4.1 4.7 4.7 5.8 5.0 4.1 3.0 2.1 2.1 2.7 1.9 2.4 2.0 1.6 1.8 1.7 1.0 1.2 1.7 2.1 2.2 1.9 2.2 1.9 1.6 2.0 2.1 1.9 1.8 1.7 1.7 1.6 1.6 1.7 1.5 1.5
5.9 6.0 5.4 4.7 4.7 4.3 3.8 3.8 4.3 5.3 4.6 4.9 4.5 3.5 3.1 2.6 2.6 2.2 1.8 1.6 1.1 1.1 1.8 2.4 1.6 1.4 2.0 1.9 1.9 1.6 1.9 1.7 1.4 1.6 1.8 1.7 1.7 1.6 1.5 1.6 1.5 1.3 1.4 1.2
5.2 4.7 3.5 3.6 3.9 3.9 3.8 4.0 3.9 4.4 4.2 4.0 4.2 3.1 2.8 2.9 2.6 2.7 2.0 2.2 2.0 2.0 2.1 2.3 1.8 1.4 1.3 1.8 2.2 1.9 1.7 1.5 0.7 1.3 1.3 1.6 1.7 1.8 1.8 1.9 1.8 1.7 1.7 1.8